Regional Weather Roundup
Issued by NWS

Home | Current Version | Previous Version | Text Only | Print | Product List | Glossary On
Versions: 1 2 3 4 5 6 7 8 9 10 11 12 13 14 15 16 17 18 19 20 21 22 23 24 25 26 27 28 29 30 31 32 33 34 35 36 37 38 39 40 41 42 43 44 45 46 47 48 49 50
000
ASUS43 KLSX 271259
RWRMO

WEATHER SUMMARY FOR MISSOURI
NATIONAL WEATHER SERVICE SPRINGFIELD MO
800 AM CDT THU JUL 27 2017

NOTE: "FAIR" INDICATES FEW OR NO CLOUDS BELOW 12,000 FEET WITH NO
       SIGNIFICANT WEATHER AND/OR OBSTRUCTIONS TO VISIBILITY.
       CURRENT SKY AND/OR WEATHER CONDITIONS ARE NOT AVAILABLE FOR
       CHILLICOTHE AND FARMINGTON.

MOZ001>031-035>038-043-044-053-054-271400-
...NORTHERN AND WESTERN MISSOURI...

CITY           SKY/WX    TMP DP  RH WIND       PRES   REMARKS
KANSAS CTY INT DRIZZLE   75  74  96 NE7       29.97S FOG
KANSAS C DTWN    N/A     76  74  93 MISG      29.95F
LEE`S SUMMIT   CLOUDY    74  74 100 NW3       29.97F
ST JOSEPH      PTSUNNY   75  73  93 N10       29.99R
CHILLICOTHE      N/A     76  75  97 N3        29.98R
KIRKSVILLE     CLOUDY    75  73  93 N6        29.98R

$$
MOZ066>068-077>081-088>096-101>105-271400-
...SOUTHWEST MISSOURI...

CITY           SKY/WX    TMP DP  RH WIND       PRES   REMARKS
SPRINGFIELD    RAIN      76  74  93 W6        30.04R FOG
JOPLIN         LGT RAIN  77  76  96 SW12      29.99F
BRANSON        CLOUDY    77  70  78 CALM      30.04R

$$
MOZ032>034-039>042-045>050-055>058-069>072-271400-
...CENTRAL MISSOURI...

CITY           SKY/WX    TMP DP  RH WIND       PRES   REMARKS
COLUMBIA       LGT RAIN  74  73  97 CALM      29.97F
JEFFERSON CITY LGT RAIN  75  75 100 E3        29.96R
ROLLA          LGT RAIN  72  72 100 SW7       30.01S
SEDALIA        CLOUDY    75  75 100 SW6       29.97R
WARRENSBURG    CLOUDY    72  72 100 SW5       29.96R
OSAGE BEACH    RAIN      73  70  90 SW9       29.97F

$$
MOZ051-052-059>065-271400-
...EAST CENTRAL MISSOURI...

CITY           SKY/WX    TMP DP  RH WIND       PRES   REMARKS
ST LOUIS INTL  LGT RAIN  78  74  87 VRB6      29.98R
SPIRIT OF STL  LGT RAIN  77  76  96 CALM      29.96R
ST CHARLES     RAIN      75  75 100 W5        29.95S FOG

$$
MOZ072>076-082>087-097>100-106>115-271400-
...SOUTH CENTRAL AND SOUTHEAST MISSOURI...

CITY           SKY/WX    TMP DP  RH WIND       PRES   REMARKS
CAPE GIRARDEAU CLOUDY    80  74  81 SW6       29.97R
FARMINGTON     CLOUDY    78  74  87 VRB5      30.01R
POPLAR BLUFF   CLOUDY    79  76  90 SW8       29.98R
WEST PLAINS    LGT RAIN  75  72  90 W3        30.04R

$$




USA.gov is the U.S. government's official web portal to all federal, state and local government web resources and services.